DFELB EDDS-EDDN

Flight info

Callsign DFELB
Flight time 0h 36m
Altitude 12000
Route DKB9B DKB N869 LETKU LETKU1V
Aircraft TBM9/L-SDFGRWY/S

Departure

Time 2026-05-05 16:11
Airport Stuttgart Airport (EDDS)

Arrival

Time 2026-05-05 16:47
Airport Nuremberg Airport (EDDN)
Time Latitude Longitude Altitude Speed Heading
2026-05-05 15:54 48.69182 9.21240 1280 ft 0 kts 179°
2026-05-05 16:04 48.69173 9.21228 1280 ft 8 kts 243°
2026-05-05 16:04 48.69142 9.21126 1280 ft 13 kts 240°
2026-05-05 16:05 48.69082 9.21031 1280 ft 14 kts 170°
2026-05-05 16:05 48.69049 9.21159 1280 ft 16 kts 76°
2026-05-05 16:05 48.69086 9.21334 1280 ft 19 kts 70°
2026-05-05 16:05 48.69129 9.21536 1280 ft 21 kts 73°
2026-05-05 16:06 48.69174 9.21763 1280 ft 24 kts 73°
2026-05-05 16:06 48.69214 9.22018 1280 ft 26 kts 75°
2026-05-05 16:06 48.69270 9.22285 1280 ft 28 kts 70°
2026-05-05 16:06 48.69319 9.22579 1280 ft 30 kts 73°
2026-05-05 16:07 48.69383 9.22885 1280 ft 25 kts 71°
2026-05-05 16:07 48.69387 9.23148 1280 ft 27 kts 124°
2026-05-05 16:07 48.69319 9.23193 1280 ft 2 kts 175°
2026-05-05 16:07 48.69303 9.23192 1280 ft 0 kts 184°
2026-05-05 16:10 48.69275 9.23195 1280 ft 14 kts 170°
2026-05-05 16:10 48.69173 9.23168 1280 ft 11 kts 248°
2026-05-05 16:10 48.69172 9.23162 1280 ft 0 kts 247°
2026-05-05 16:11 48.69165 9.23136 1280 ft 20 kts 250°
2026-05-05 16:11 48.68466 9.20090 2413 ft 114 kts 232°
2026-05-05 16:12 48.67989 9.19199 3181 ft 116 kts 233°
2026-05-05 16:12 48.66876 9.16519 3902 ft 183 kts 244°
2026-05-05 16:13 48.65710 9.10751 4764 ft 202 kts 278°
2026-05-05 16:13 48.66168 9.08746 5024 ft 204 kts 303°
2026-05-05 16:13 48.66967 9.06970 5254 ft 208 kts 308°
2026-05-05 16:14 48.69356 9.04994 5821 ft 205 kts
2026-05-05 16:14 48.72280 9.06086 5922 ft 218 kts 26°
2026-05-05 16:15 48.74755 9.07388 7271 ft 188 kts 19°
2026-05-05 16:15 48.76950 9.09429 8307 ft 177 kts 46°
2026-05-05 16:16 48.78164 9.12575 9459 ft 163 kts 70°
2026-05-05 16:16 48.79067 9.16218 9813 ft 206 kts 72°
2026-05-05 16:17 48.80944 9.19308 10374 ft 210 kts 33°
2026-05-05 16:17 48.82289 9.20476 10035 ft 238 kts 26°
2026-05-05 16:18 48.84623 9.23120 11333 ft 202 kts 59°
2026-05-05 16:18 48.85336 9.25066 11356 ft 220 kts 59°
2026-05-05 16:18 48.87450 9.28568 11577 ft 231 kts 42°
2026-05-05 16:19 48.88421 9.30510 11715 ft 233 kts 66°
2026-05-05 16:19 48.88982 9.32840 11856 ft 235 kts 72°
2026-05-05 16:19 48.90178 9.37649 12116 ft 249 kts 68°
2026-05-05 16:20 48.91181 9.42310 13240 ft 221 kts 72°
2026-05-05 16:20 48.92527 9.46900 13000 ft 255 kts 64°
2026-05-05 16:21 48.94056 9.52077 12198 ft 277 kts 68°
2026-05-05 16:22 48.96306 9.59948 12004 ft 262 kts 67°
2026-05-05 16:22 48.97776 9.65144 11954 ft 279 kts 69°
2026-05-05 16:23 48.99351 9.70707 11854 ft 288 kts 69°
2026-05-05 16:23 49.00148 9.73510 11850 ft 289 kts 69°
2026-05-05 16:23 49.01741 9.79138 11848 ft 289 kts 69°
2026-05-05 16:24 49.02534 9.81948 11849 ft 289 kts 69°
2026-05-05 16:24 49.03322 9.84737 11850 ft 288 kts 69°
2026-05-05 16:24 49.04870 9.90244 11998 ft 277 kts 67°
2026-05-05 16:25 49.05632 9.92939 11997 ft 277 kts 67°
2026-05-05 16:25 49.07151 9.98363 11991 ft 278 kts 67°
2026-05-05 16:25 49.07900 10.01036 11997 ft 278 kts 67°
2026-05-05 16:26 49.09417 10.06460 11998 ft 278 kts 67°
2026-05-05 16:26 49.10934 10.11894 11996 ft 278 kts 67°
2026-05-05 16:27 49.11693 10.14625 11849 ft 282 kts 68°
2026-05-05 16:27 49.12454 10.17383 11598 ft 287 kts 68°
2026-05-05 16:27 49.13235 10.20204 11340 ft 289 kts 67°
2026-05-05 16:27 49.14053 10.23022 11084 ft 289 kts 62°
2026-05-05 16:28 49.15281 10.25474 10805 ft 290 kts 46°
2026-05-05 16:28 49.16717 10.27650 10552 ft 289 kts 45°
2026-05-05 16:28 49.18109 10.29819 10305 ft 288 kts 46°
2026-05-05 16:28 49.19517 10.32015 10052 ft 288 kts 46°
2026-05-05 16:29 49.20923 10.34190 9796 ft 287 kts 46°
2026-05-05 16:29 49.22319 10.36374 9520 ft 286 kts 46°
2026-05-05 16:29 49.23718 10.38543 9269 ft 286 kts 45°
2026-05-05 16:29 49.25108 10.40665 9015 ft 285 kts 45°
2026-05-05 16:30 49.26516 10.42797 8761 ft 284 kts 45°
2026-05-05 16:30 49.27913 10.44922 8508 ft 283 kts 45°
2026-05-05 16:30 49.29310 10.47059 8254 ft 282 kts 45°
2026-05-05 16:30 49.30684 10.49169 8168 ft 276 kts 45°
2026-05-05 16:31 49.32037 10.51228 8163 ft 272 kts 45°
2026-05-05 16:31 49.33353 10.53235 8160 ft 269 kts 45°
2026-05-05 16:31 49.34672 10.55264 8156 ft 268 kts 45°
2026-05-05 16:31 49.35985 10.57294 8153 ft 267 kts 45°
2026-05-05 16:32 49.37295 10.59334 8154 ft 267 kts 46°
2026-05-05 16:32 49.38605 10.61375 8152 ft 267 kts 45°
2026-05-05 16:32 49.39908 10.63395 8154 ft 267 kts 45°
2026-05-05 16:32 49.41198 10.65399 8154 ft 267 kts 46°
2026-05-05 16:33 49.42319 10.67652 8166 ft 267 kts 62°
2026-05-05 16:33 49.42971 10.70335 7992 ft 273 kts 78°
2026-05-05 16:33 49.43082 10.73288 7635 ft 280 kts 95°
2026-05-05 16:33 49.42793 10.76265 7267 ft 282 kts 99°
2026-05-05 16:34 49.42511 10.79216 6895 ft 283 kts 98°
2026-05-05 16:34 49.42237 10.82212 6521 ft 283 kts 99°
2026-05-05 16:34 49.41945 10.85196 6146 ft 282 kts 99°
2026-05-05 16:34 49.41652 10.88182 5767 ft 281 kts 99°
2026-05-05 16:35 49.41368 10.91147 5391 ft 280 kts 99°
2026-05-05 16:35 49.41085 10.94088 5166 ft 274 kts 99°
2026-05-05 16:35 49.40810 10.96939 5161 ft 266 kts 99°
2026-05-05 16:35 49.40541 10.99707 5155 ft 263 kts 99°
2026-05-05 16:36 49.40271 11.02466 5153 ft 261 kts 99°
2026-05-05 16:36 49.40001 11.05227 5156 ft 260 kts 99°
2026-05-05 16:36 49.39728 11.07973 5158 ft 259 kts 99°
2026-05-05 16:36 49.39456 11.10714 5156 ft 259 kts 99°
2026-05-05 16:37 49.39184 11.13456 5084 ft 262 kts 99°
2026-05-05 16:37 49.38904 11.16231 4816 ft 268 kts 99°
2026-05-05 16:37 49.38617 11.19083 4535 ft 271 kts 99°
2026-05-05 16:37 49.38332 11.21951 4264 ft 272 kts 99°
2026-05-05 16:38 49.38053 11.24805 4164 ft 266 kts 99°
2026-05-05 16:38 49.37780 11.27530 4157 ft 248 kts 99°
2026-05-05 16:38 49.37536 11.30096 4153 ft 239 kts 99°
2026-05-05 16:38 49.37295 11.32511 4153 ft 220 kts 99°
2026-05-05 16:39 49.37065 11.34755 4151 ft 211 kts 99°
2026-05-05 16:39 49.36840 11.36957 4154 ft 207 kts 99°
2026-05-05 16:39 49.36752 11.39145 4147 ft 205 kts 80°
2026-05-05 16:39 49.37381 11.41067 4149 ft 204 kts 45°
2026-05-05 16:40 49.38554 11.42262 4154 ft 203 kts 21°
2026-05-05 16:40 49.39914 11.42779 4155 ft 204 kts
2026-05-05 16:40 49.41312 11.43128 4160 ft 204 kts
2026-05-05 16:40 49.42721 11.43452 4157 ft 204 kts
2026-05-05 16:41 49.44107 11.43096 4155 ft 202 kts 339°
2026-05-05 16:41 49.45286 11.41985 4154 ft 202 kts 317°
2026-05-05 16:41 49.46213 11.40368 4151 ft 200 kts 304°
2026-05-05 16:41 49.46762 11.38540 4151 ft 180 kts 286°
2026-05-05 16:42 49.47010 11.36699 4152 ft 172 kts 281°
2026-05-05 16:42 49.47209 11.34923 4153 ft 167 kts 279°
2026-05-05 16:42 49.47377 11.33180 4103 ft 168 kts 279°
2026-05-05 16:42 49.47554 11.31360 3889 ft 175 kts 279°
2026-05-05 16:43 49.47741 11.29488 3654 ft 178 kts 279°
2026-05-05 16:43 49.47922 11.27620 3411 ft 174 kts 279°
2026-05-05 16:43 49.48103 11.25790 3176 ft 171 kts 278°
2026-05-05 16:43 49.48275 11.24043 2961 ft 157 kts 279°
2026-05-05 16:44 49.48426 11.22511 2756 ft 134 kts 278°
2026-05-05 16:44 49.48556 11.21178 2583 ft 118 kts 279°
2026-05-05 16:44 49.48673 11.19982 2427 ft 112 kts 278°
2026-05-05 16:44 49.48781 11.18869 2286 ft 105 kts 279°
2026-05-05 16:45 49.48887 11.17826 2148 ft 93 kts 279°
2026-05-05 16:45 49.48977 11.16885 2027 ft 86 kts 279°
2026-05-05 16:45 49.49066 11.15942 1921 ft 95 kts 278°
2026-05-05 16:45 49.49173 11.14887 1786 ft 102 kts 279°
2026-05-05 16:46 49.49284 11.13792 1648 ft 104 kts 279°
2026-05-05 16:46 49.49389 11.12690 1506 ft 106 kts 279°
2026-05-05 16:46 49.49502 11.11562 1362 ft 107 kts 278°
2026-05-05 16:46 49.49612 11.10428 1218 ft 104 kts 279°
2026-05-05 16:47 49.49714 11.09392 1067 ft 94 kts 278°
2026-05-05 16:47 49.49804 11.08481 1031 ft 79 kts 279°
2026-05-05 16:47 49.49881 11.07706 1022 ft 68 kts 278°
2026-05-05 16:47 49.49931 11.07157 1019 ft 40 kts 276°
2026-05-05 16:48 49.49838 11.07042 1016 ft 11 kts 155°
2026-05-05 16:48 49.49835 11.07044 1016 ft 0 kts 155°
2026-05-05 16:48 49.49785 11.07084 1016 ft 13 kts 141°
2026-05-05 16:48 49.49726 11.07199 1017 ft 15 kts 147°
2026-05-05 16:49 49.49622 11.07217 1020 ft 16 kts 183°
2026-05-05 16:49 49.49512 11.07178 1021 ft 18 kts 236°
2026-05-05 16:49 49.49520 11.06985 1021 ft 20 kts 271°
2026-05-05 16:49 49.49464 11.06894 1021 ft 3 kts 249°
2026-05-05 16:50 49.49453 11.06892 1021 ft 0 kts 107°
2026-05-05 16:50 49.49456 11.06883 1021 ft 3 kts 104°
2026-05-05 16:50 49.49458 11.06873 1021 ft 0 kts 99°